| time (UTC) | temp C | wind direction | speed KPH | gust KPH | rain 1hr cm | rain 24hr cm | rain mn cm | humidity % | barometer mb |
| 20260510191803 | 11 | 251 | 9.7 | 17.7 | 0.00 | 0.00 | 0.00 | 40 | 1022.9 |
| 20260510191259 | 11 | 32 | 9.7 | 17.7 | 0.00 | 0.00 | 0.00 | 40 | 1022.7 |
| 20260510190758 | 11 | 356 | 8.0 | 20.9 | 0.00 | 0.00 | 0.00 | 41 | 1023.0 |
| 20260510190254 | 11 | 7 | 9.7 | 17.7 | 0.00 | 0.00 | 0.00 | 41 | 1022.9 |
| 20260510185750 | 11 | 359 | 11.3 | 17.7 | 0.00 | 0.00 | 0.00 | 41 | 1022.8 |
| 20260510185250 | 11 | 285 | 8.0 | 17.7 | 0.00 | 0.00 | 0.00 | 43 | 1023.1 |
| 20260510184746 | 11 | 2 | 17.7 | 22.5 | 0.00 | 0.00 | 0.00 | 41 | 1022.9 |
| 20260510184243 | 11 | 2 | 11.3 | 17.7 | 0.00 | 0.00 | 0.00 | 45 | 1023.0 |
| 20260510183743 | 11 | 351 | 8.0 | 17.7 | 0.00 | 0.00 | 0.00 | 46 | 1023.1 |
| 20260510183238 | 11 | 332 | 19.3 | 25.7 | 0.00 | 0.00 | 0.00 | 43 | 1023.1 |
| 20260510182734 | 11 | 341 | 9.7 | 25.7 | 0.00 | 0.00 | 0.00 | 46 | 1023.1 |
| 20260510182230 | 11 | 311 | 16.1 | 20.9 | 0.00 | 0.00 | 0.00 | 44 | 1023.1 |
| 20260510181727 | 11 | 23 | 9.7 | 20.9 | 0.00 | 0.00 | 0.00 | 45 | 1022.9 |
| 20260510181225 | 11 | 317 | 14.5 | 22.5 | 0.00 | 0.00 | 0.00 | 46 | 1023.1 |
| 20260510180720 | 11 | 294 | 9.7 | 22.5 | 0.00 | 0.00 | 0.00 | 44 | 1023.0 |
| 20260510180218 | 11 | 327 | 8.0 | 16.1 | 0.00 | 0.00 | 0.00 | 46 | 1022.9 |
| 20260510175714 | 11 | 339 | 6.4 | 12.9 | 0.00 | 0.00 | 0.00 | 49 | 1022.9 |
| 20260510175210 | 11 | 15 | 12.9 | 20.9 | 0.00 | 0.00 | 0.00 | 46 | 1022.9 |
| 20260510174707 | 10 | 336 | 6.4 | 22.5 | 0.00 | 0.00 | 0.00 | 50 | 1023.1 |
| 20260510174204 | 11 | 289 | 14.5 | 16.1 | 0.00 | 0.00 | 0.00 | 47 | 1023.1 |
| 20260510173700 | 10 | 275 | 9.7 | 20.9 | 0.00 | 0.00 | 0.00 | 48 | 1022.9 |
| 20260510173156 | 11 | 325 | 8.0 | 24.1 | 0.00 | 0.00 | 0.00 | 47 | 1022.9 |
| 20260510172652 | 10 | 49 | 9.7 | 24.1 | 0.00 | 0.00 | 0.00 | 47 | 1023.0 |
| 20260510172148 | 10 | 357 | 17.7 | 24.1 | 0.00 | 0.00 | 0.00 | 45 | 1022.8 |
| 20260510171645 | 10 | 345 | 11.3 | 20.9 | 0.00 | 0.00 | 0.00 | 47 | 1022.9 |
| 20260510171143 | 11 | 350 | 12.9 | 20.9 | 0.00 | 0.00 | 0.00 | 46 | 1023.0 |
| 20260510170639 | 11 | 334 | 6.4 | 17.7 | 0.00 | 0.00 | 0.00 | 49 | 1023.0 |
| 20260510170136 | 10 | 34 | 9.7 | 20.9 | 0.00 | 0.00 | 0.00 | 46 | 1022.9 |
| 20260510165631 | 10 | 337 | 9.7 | 14.5 | 0.00 | 0.00 | 0.00 | 48 | 1022.9 |
| 20260510165127 | 10 | 337 | 9.7 | 20.9 | 0.00 | 0.00 | 0.00 | 49 | 1023.2 |
| 20260510164625 | 10 | 346 | 12.9 | 14.5 | 0.00 | 0.00 | 0.00 | 47 | 1022.8 |
| 20260510164121 | 10 | 307 | 11.3 | 17.7 | 0.00 | 0.00 | 0.00 | 48 | 1022.9 |
| 20260510163616 | 10 | 333 | 11.3 | 20.9 | 0.00 | 0.00 | 0.00 | 46 | 1023.0 |
| 20260510163113 | 10 | 12 | 9.7 | 17.7 | 0.00 | 0.00 | 0.00 | 47 | 1022.8 |
| 20260510162608 | 10 | 44 | 11.3 | 17.7 | 0.00 | 0.00 | 0.00 | 47 | 1022.9 |
| 20260510162104 | 10 | 17 | 9.7 | 24.1 | 0.00 | 0.00 | 0.00 | 46 | 1022.7 |
| 20260510161600 | 10 | 319 | 4.8 | 12.9 | 0.00 | 0.00 | 0.00 | 51 | 1022.8 |
| 20260510161058 | 10 | 329 | 9.7 | 16.1 | 0.00 | 0.00 | 0.00 | 49 | 1022.9 |
| 20260510160554 | 10 | 64 | 3.2 | 12.9 | 0.00 | 0.00 | 0.00 | 50 | 1022.7 |
| 20260510160054 | 10 | 317 | 6.4 | 17.7 | 0.00 | 0.00 | 0.00 | 50 | 1022.8 |
| 20260510155550 | 10 | 38 | 6.4 | 14.5 | 0.00 | 0.00 | 0.00 | 49 | 1022.7 |
| 20260510155047 | 10 | 19 | 11.3 | 14.5 | 0.00 | 0.00 | 0.00 | 48 | 1022.7 |
| 20260510154542 | 10 | 35 | 12.9 | 22.5 | 0.00 | 0.00 | 0.00 | 48 | 1022.8 |
| 20260510154038 | 10 | 13 | 12.9 | 16.1 | 0.00 | 0.00 | 0.00 | 48 | 1022.8 |
| 20260510153533 | 10 | 25 | 9.7 | 14.5 | 0.00 | 0.00 | 0.00 | 48 | 1022.4 |
| 20260510153031 | 10 | 37 | 4.8 | 22.5 | 0.00 | 0.00 | 0.00 | 51 | 1022.4 |
| 20260510152528 | 10 | 24 | 4.8 | 16.1 | 0.00 | 0.00 | 0.00 | 48 | 1022.6 |
| 20260510152024 | 10 | 40 | 6.4 | 14.5 | 0.00 | 0.00 | 0.00 | 47 | 1022.5 |
| 20260510151520 | 9 | 88 | 9.7 | 16.1 | 0.00 | 0.00 | 0.00 | 49 | 1022.6 |
| 20260510151018 | 8 | 133 | 6.4 | 11.3 | 0.00 | 0.00 | 0.00 | 49 | 1022.6 |
| 20260510150513 | 8 | 29 | 9.7 | 16.1 | 0.00 | 0.00 | 0.00 | 49 | 1022.5 |
| 20260510150009 | 9 | 42 | 6.4 | 17.7 | 0.00 | 0.00 | 0.00 | 47 | 1022.5 |
| 20260510145506 | 8 | 4 | 9.7 | 22.5 | 0.00 | 0.00 | 0.00 | 48 | 1022.5 |
| 20260510144956 | 9 | 44 | 6.4 | 14.5 | 0.00 | 0.00 | 0.00 | 48 | 1022.4 |
| 20260510144453 | 8 | 52 | 6.4 | 11.3 | 0.00 | 0.00 | 0.00 | 50 | 1022.4 |
| 20260510143949 | 8 | 2 | 9.7 | 14.5 | 0.00 | 0.00 | 0.00 | 50 | 1022.5 |
| 20260510143444 | 8 | 15 | 14.5 | 17.7 | 0.00 | 0.00 | 0.00 | 49 | 1022.4 |
| 20260510142942 | 8 | 58 | 11.3 | 16.1 | 0.00 | 0.00 | 0.00 | 50 | 1022.4 |
| 20260510142438 | 7 | 333 | 4.8 | 11.3 | 0.00 | 0.00 | 0.00 | 53 | 1022.5 |
| 20260510141935 | 8 | 16 | 8.0 | 16.1 | 0.00 | 0.00 | 0.00 | 53 | 1022.5 |
| 20260510141432 | 8 | 70 | 4.8 | 12.9 | 0.00 | 0.00 | 0.00 | 54 | 1022.2 |
| 20260510140929 | 8 | 59 | 1.6 | 12.9 | 0.00 | 0.00 | 0.00 | 59 | 1022.0 |
| 20260510140425 | 8 | 36 | 3.2 | 9.7 | 0.00 | 0.00 | 0.00 | 58 | 1022.2 |
| 20260510135924 | 7 | 14 | 8.0 | 16.1 | 0.00 | 0.00 | 0.00 | 57 | 1022.4 |
| 20260510135415 | 7 | 45 | 8.0 | 12.9 | 0.00 | 0.00 | 0.00 | 60 | 1022.0 |
| 20260510134912 | 7 | 40 | 9.7 | 22.5 | 0.00 | 0.00 | 0.00 | 59 | 1022.0 |
| 20260510134409 | 7 | 63 | 4.8 | 14.5 | 0.00 | 0.00 | 0.00 | 60 | 1022.0 |
| 20260510133900 | 6 | 60 | 4.8 | 11.3 | 0.00 | 0.00 | 0.00 | 60 | 1022.1 |
| 20260510133356 | 7 | 30 | 8.0 | 12.9 | 0.00 | 0.00 | 0.00 | 59 | 1022.2 |
| 20260510132851 | 7 | 117 | 6.4 | 12.9 | 0.00 | 0.00 | 0.00 | 59 | 1022.1 |
| 20260510132350 | 6 | 95 | 9.7 | 12.9 | 0.00 | 0.00 | 0.00 | 60 | 1022.0 |
| 20260510131846 | 6 | 52 | 6.4 | 11.3 | 0.00 | 0.00 | 0.00 | 60 | 1021.9 |
| 20260510131344 | 6 | 31 | 8.0 | 16.1 | 0.00 | 0.00 | 0.00 | 62 | 1022.0 |
| 20260510130840 | 6 | 6 | 9.7 | 12.9 | 0.00 | 0.00 | 0.00 | 64 | 1022.0 |
| 20260510130337 | 6 | 49 | 3.2 | 9.7 | 0.00 | 0.00 | 0.00 | 66 | 1022.0 |
| 20260510125834 | 6 | 139 | 4.8 | 12.9 | 0.00 | 0.00 | 0.00 | 66 | 1021.8 |
| 20260510125330 | 6 | 345 | 6.4 | 12.9 | 0.00 | 0.00 | 0.00 | 66 | 1021.6 |
| 20260510124827 | 6 | 113 | 4.8 | 11.3 | 0.00 | 0.00 | 0.00 | 67 | 1022.0 |
| 20260510124324 | 6 | 48 | 6.4 | 11.3 | 0.00 | 0.00 | 0.00 | 66 | 1021.9 |
| 20260510123820 | 6 | 13 | 9.7 | 16.1 | 0.00 | 0.00 | 0.00 | 68 | 1021.6 |
| 20260510123315 | 6 | 117 | 8.0 | 16.1 | 0.00 | 0.00 | 0.00 | 67 | 1021.5 |
| 20260510122812 | 6 | 19 | 6.4 | 14.5 | 0.00 | 0.00 | 0.00 | 67 | 1021.3 |
| 20260510122308 | 6 | 54 | 3.2 | 16.1 | 0.00 | 0.00 | 0.00 | 67 | 1021.3 |
| 20260510121804 | 6 | 59 | 1.6 | 9.7 | 0.00 | 0.00 | 0.00 | 66 | 1021.2 |
| 20260510121302 | 6 | 31 | 8.0 | 16.1 | 0.00 | 0.00 | 0.00 | 65 | 1021.2 |
| 20260510120759 | 6 | 4 | 6.4 | 6.4 | 0.00 | 0.00 | 0.00 | 65 | 1021.1 |
| 20260510120255 | 6 | 53 | 4.8 | 12.9 | 0.00 | 0.00 | 0.00 | 65 | 1021.1 |
| 20260510115751 | 6 | 58 | 3.2 | 9.7 | 0.00 | 0.00 | 0.00 | 64 | 1021.0 |
| 20260510115249 | 6 | 66 | 3.2 | 11.3 | 0.00 | 0.00 | 0.00 | 64 | 1021.0 |
| 20260510114744 | 6 | 9 | 9.7 | 12.9 | 0.00 | 0.00 | 0.00 | 62 | 1020.6 |
| 20260510114242 | 6 | 343 | 6.4 | 14.5 | 0.00 | 0.00 | 0.00 | 63 | 1020.8 |
| 20260510113737 | 7 | 15 | 1.6 | 14.5 | 0.00 | 0.00 | 0.00 | 63 | 1020.7 |
| 20260510113234 | 7 | 67 | 6.4 | 11.3 | 0.00 | 0.00 | 0.00 | 62 | 1020.6 |
| 20260510112725 | 7 | 39 | 6.4 | 12.9 | 0.00 | 0.00 | 0.00 | 64 | 1020.5 |
| 20260510112222 | 7 | 10 | 6.4 | 12.9 | 0.00 | 0.00 | 0.00 | 62 | 1020.5 |
| 20260510111717 | 6 | 42 | 0.0 | 1.6 | 0.00 | 0.00 | 0.00 | 66 | 1020.4 |
| 20260510111215 | 6 | 107 | 0.0 | 4.8 | 0.00 | 0.00 | 0.00 | 65 | 1020.6 |
| 20260510110714 | 6 | 24 | 0.0 | 3.2 | 0.00 | 0.00 | 0.00 | 66 | 1020.3 |
| 20260510110213 | 6 | 32 | 3.2 | 4.8 | 0.00 | 0.00 | 0.00 | 65 | 1020.2 |
| 20260510105712 | 6 | 23 | 4.8 | 6.4 | 0.00 | 0.00 | 0.00 | 66 | 1020.0 |
| 20260510105207 | 6 | 95 | 1.6 | 9.7 | 0.00 | 0.00 | 0.00 | 66 | 1020.1 |
| 20260510104704 | 6 | 97 | 0.0 | 3.2 | 0.00 | 0.00 | 0.00 | 67 | 1019.9 |
| 20260510104201 | 6 | 66 | 0.0 | 1.6 | 0.00 | 0.00 | 0.00 | 67 | 1019.9 |
| 20260510103657 | 6 | 79 | 1.6 | 3.2 | 0.00 | 0.00 | 0.00 | 67 | 1019.6 |
| 20260510103154 | 6 | 86 | 1.6 | 1.6 | 0.00 | 0.00 | 0.00 | 66 | 1019.9 |
| 20260510102654 | 6 | 17 | 3.2 | 3.2 | 0.00 | 0.00 | 0.00 | 66 | 1019.5 |
| 20260510102151 | 6 | 140 | 0.0 | 3.2 | 0.00 | 0.00 | 0.00 | 66 | 1019.9 |
| 20260510101648 | 6 | 40 | 0.0 | 3.2 | 0.00 | 0.00 | 0.00 | 68 | 1019.5 |
| 20260510101146 | 6 | 148 | 0.0 | 0.0 | 0.00 | 0.00 | 0.00 | 67 | 1019.6 |
| 20260510100642 | 6 | 125 | 0.0 | 1.6 | 0.00 | 0.00 | 0.00 | 66 | 1019.6 |
| 20260510100140 | 6 | 28 | 1.6 | 3.2 | 0.00 | 0.00 | 0.00 | 67 | 1019.5 |
| 20260510095635 | 6 | 36 | 1.6 | 3.2 | 0.00 | 0.00 | 0.00 | 67 | 1019.6 |
| 20260510095130 | 6 | 45 | 1.6 | 3.2 | 0.00 | 0.00 | 0.00 | 65 | 1019.4 |
| 20260510094623 | 6 | 96 | 1.6 | 4.8 | 0.00 | 0.00 | 0.00 | 67 | 1019.4 |
| 20260510094119 | 6 | 89 | 3.2 | 6.4 | 0.00 | 0.00 | 0.00 | 67 | 1019.4 |
| 20260510093616 | 6 | 33 | 4.8 | 6.4 | 0.00 | 0.00 | 0.00 | 67 | 1019.3 |
| 20260510093113 | 6 | 116 | 0.0 | 4.8 | 0.00 | 0.00 | 0.00 | 69 | 1019.1 |
| 20260510092610 | 6 | 105 | 1.6 | 4.8 | 0.00 | 0.00 | 0.00 | 70 | 1019.1 |
| 20260510092109 | 7 | 52 | 0.0 | 3.2 | 0.00 | 0.00 | 0.00 | 70 | 1019.0 |
| 20260510091606 | 7 | 5 | 1.6 | 4.8 | 0.00 | 0.00 | 0.00 | 69 | 1019.0 |
| 20260510091102 | 7 | 41 | 4.8 | 6.4 | 0.00 | 0.00 | 0.00 | 67 | 1019.0 |
| 20260510090600 | 7 | 20 | 3.2 | 11.3 | 0.00 | 0.00 | 0.00 | 64 | 1019.0 |
| 20260510090055 | 7 | 42 | 6.4 | 11.3 | 0.00 | 0.00 | 0.00 | 66 | 1018.8 |
| 20260510085550 | 7 | 5 | 4.8 | 6.4 | 0.00 | 0.00 | 0.00 | 66 | 1018.7 |
| 20260510085046 | 7 | 34 | 6.4 | 9.7 | 0.00 | 0.00 | 0.00 | 65 | 1018.6 |
| 20260510084543 | 7 | 75 | 0.0 | 3.2 | 0.00 | 0.00 | 0.00 | 65 | 1018.6 |
| 20260510084040 | 7 | 10 | 6.4 | 6.4 | 0.00 | 0.00 | 0.00 | 64 | 1018.5 |
| 20260510083536 | 7 | 31 | 3.2 | 3.2 | 0.00 | 0.00 | 0.00 | 64 | 1018.5 |
| 20260510083032 | 7 | 335 | 1.6 | 4.8 | 0.00 | 0.00 | 0.00 | 66 | 1018.3 |
| 20260510082530 | 7 | 56 | 0.0 | 4.8 | 0.00 | 0.00 | 0.00 | 66 | 1018.2 |
| 20260510082025 | 7 | 16 | 1.6 | 3.2 | 0.00 | 0.00 | 0.00 | 67 | 1018.0 |
| 20260510081520 | 7 | 100 | 0.0 | 1.6 | 0.00 | 0.00 | 0.00 | 73 | 1017.8 |
| 20260510081016 | 6 | 252 | 0.0 | 1.6 | 0.00 | 0.00 | 0.00 | 73 | 1018.0 |
| 20260510080515 | 6 | 271 | 1.6 | 3.2 | 0.00 | 0.00 | 0.00 | 74 | 1017.6 |
| 20260510080012 | 6 | 206 | 0.0 | 0.0 | 0.00 | 0.00 | 0.00 | 78 | 1017.6 |
| 20260510075510 | 6 | 205 | 0.0 | 0.0 | 0.00 | 0.00 | 0.00 | 77 | 1017.6 |
| 20260510075006 | 6 | 210 | 1.6 | 1.6 | 0.00 | 0.00 | 0.00 | 76 | 1017.6 |
| 20260510074504 | 6 | 217 | 0.0 | 0.0 | 0.00 | 0.00 | 0.00 | 77 | 1017.8 |
| 20260510073959 | 6 | 187 | 0.0 | 0.0 | 0.00 | 0.00 | 0.00 | 77 | 1017.6 |
| 20260510073455 | 6 | 186 | 0.0 | 0.0 | 0.00 | 0.00 | 0.00 | 75 | 1017.6 |
| 20260510072952 | 6 | 178 | 0.0 | 0.0 | 0.00 | 0.00 | 0.00 | 75 | 1017.8 |
| 20260510072449 | 5 | 194 | 0.0 | 0.0 | 0.00 | 0.00 | 0.00 | 75 | 1017.8 |
| 20260510071944 | 5 | 187 | 0.0 | 0.0 | 0.00 | 0.00 | 0.00 | 75 | 1017.5 |
| 20260510071441 | 5 | 199 | 0.0 | 0.0 | 0.00 | 0.00 | 0.00 | 73 | 1017.6 |
| 20260510070939 | 5 | 190 | 0.0 | 0.0 | 0.00 | 0.00 | 0.00 | 73 | 1017.6 |
| 20260510070436 | 5 | 190 | 0.0 | 1.6 | 0.00 | 0.00 | 0.00 | 73 | 1017.6 |
| 20260510065932 | 5 | 156 | 0.0 | 0.0 | 0.00 | 0.00 | 0.00 | 74 | 1017.8 |
| 20260510065429 | 5 | 201 | 0.0 | 1.6 | 0.00 | 0.00 | 0.00 | 74 | 1017.7 |
| 20260510064924 | 5 | 189 | 0.0 | 1.6 | 0.00 | 0.00 | 0.00 | 77 | 1017.8 |
| 20260510064423 | 5 | 165 | 0.0 | 0.0 | 0.00 | 0.00 | 0.00 | 77 | 1017.7 |
| 20260510063919 | 5 | 247 | 0.0 | 1.6 | 0.00 | 0.00 | 0.00 | 76 | 1017.7 |
| 20260510063415 | 6 | 200 | 0.0 | 0.0 | 0.00 | 0.00 | 0.00 | 79 | 1017.7 |
| 20260510062913 | 6 | 205 | 0.0 | 0.0 | 0.00 | 0.00 | 0.00 | 80 | 1017.5 |
| 20260510062408 | 6 | 207 | 0.0 | 0.0 | 0.00 | 0.00 | 0.00 | 81 | 1017.7 |
| 20260510061904 | 6 | 213 | 0.0 | 0.0 | 0.00 | 0.00 | 0.00 | 81 | 1017.5 |
| 20260510061401 | 6 | 221 | 1.6 | 1.6 | 0.00 | 0.00 | 0.00 | 81 | 1017.6 |
| 20260510060856 | 6 | 214 | 1.6 | 3.2 | 0.00 | 0.00 | 0.00 | 80 | 1017.4 |
| 20260510060354 | 5 | 232 | 1.6 | 1.6 | 0.00 | 0.00 | 0.00 | 79 | 1017.6 |
| 20260510055849 | 5 | 226 | 1.6 | 1.6 | 0.00 | 0.00 | 0.00 | 78 | 1017.6 |
| 20260510055349 | 4 | 183 | 0.0 | 0.0 | 0.00 | 0.00 | 0.00 | 78 | 1017.6 |
| 20260510054843 | 4 | 165 | 0.0 | 0.0 | 0.00 | 0.00 | 0.00 | 77 | 1017.8 |
| 20260510054338 | 4 | 165 | 0.0 | 0.0 | 0.00 | 0.00 | 0.00 | 76 | 1017.6 |
| 20260510053833 | 3 | 165 | 0.0 | 0.0 | 0.00 | 0.00 | 0.00 | 74 | 1017.6 |
| 20260510053329 | 4 | 165 | 0.0 | 0.0 | 0.00 | 0.00 | 0.00 | 73 | 1017.4 |
| 20260510052826 | 3 | 165 | 0.0 | 0.0 | 0.00 | 0.00 | 0.00 | 73 | 1017.5 |
| 20260510052321 | 3 | 165 | 0.0 | 0.0 | 0.00 | 0.00 | 0.00 | 74 | 1017.4 |
| 20260510051818 | 4 | 164 | 0.0 | 0.0 | 0.00 | 0.00 | 0.00 | 73 | 1017.4 |
| 20260510051315 | 4 | 164 | 0.0 | 0.0 | 0.00 | 0.00 | 0.00 | 73 | 1017.1 |
| 20260510050812 | 4 | 168 | 0.0 | 0.0 | 0.00 | 0.00 | 0.00 | 72 | 1017.4 |
| 20260510050308 | 4 | 167 | 0.0 | 0.0 | 0.00 | 0.00 | 0.00 | 71 | 1017.4 |
| 20260510045806 | 5 | 167 | 0.0 | 0.0 | 0.00 | 0.23 | 0.23 | 71 | 1017.1 |
| 20260510045305 | 5 | 161 | 0.0 | 0.0 | 0.00 | 0.23 | 0.23 | 70 | 1017.4 |
| 20260510044759 | 5 | 161 | 0.0 | 0.0 | 0.00 | 0.23 | 0.23 | 71 | 1016.9 |
| 20260510044256 | 5 | 165 | 0.0 | 0.0 | 0.00 | 0.23 | 0.23 | 69 | 1017.1 |
| 20260510043752 | 5 | 165 | 0.0 | 0.0 | 0.00 | 0.23 | 0.23 | 69 | 1017.1 |
| 20260510043243 | 6 | 184 | 0.0 | 0.0 | 0.00 | 0.23 | 0.23 | 67 | 1017.2 |
| 20260510042740 | 6 | 184 | 0.0 | 0.0 | 0.00 | 0.23 | 0.23 | 66 | 1017.2 |
| 20260510042236 | 6 | 184 | 0.0 | 0.0 | 0.00 | 0.23 | 0.23 | 63 | 1017.1 |
| 20260510041733 | 6 | 180 | 0.0 | 0.0 | 0.00 | 0.23 | 0.23 | 63 | 1017.0 |
| 20260510041230 | 6 | 195 | 0.0 | 0.0 | 0.00 | 0.23 | 0.23 | 62 | 1016.9 |
| 20260510040727 | 7 | 195 | 0.0 | 0.0 | 0.00 | 0.23 | 0.23 | 61 | 1017.1 |
| 20260510040224 | 7 | 195 | 0.0 | 0.0 | 0.00 | 0.23 | 0.23 | 65 | 1017.0 |
| 20260510035719 | 7 | 195 | 0.0 | 0.0 | 0.00 | 0.23 | 0.23 | 64 | 1017.1 |
| 20260510035216 | 7 | 222 | 0.0 | 0.0 | 0.00 | 0.23 | 0.23 | 63 | 1017.1 |
| 20260510034711 | 7 | 224 | 0.0 | 0.0 | 0.00 | 0.23 | 0.23 | 64 | 1016.9 |
| 20260510034209 | 7 | 224 | 0.0 | 0.0 | 0.00 | 0.23 | 0.23 | 61 | 1017.0 |
| 20260510033704 | 7 | 224 | 0.0 | 0.0 | 0.00 | 0.23 | 0.23 | 61 | 1017.0 |
| 20260510033203 | 7 | 224 | 0.0 | 0.0 | 0.00 | 0.23 | 0.23 | 59 | 1016.8 |
| 20260510032658 | 7 | 224 | 0.0 | 0.0 | 0.00 | 0.23 | 0.23 | 59 | 1016.8 |
| 20260510032154 | 7 | 224 | 0.0 | 0.0 | 0.00 | 0.23 | 0.23 | 57 | 1016.8 |
| 20260510031649 | 7 | 225 | 0.0 | 0.0 | 0.00 | 0.23 | 0.23 | 56 | 1017.0 |
| 20260510031146 | 7 | 225 | 0.0 | 0.0 | 0.00 | 0.23 | 0.23 | 56 | 1016.8 |
| 20260510030640 | 7 | 224 | 0.0 | 0.0 | 0.00 | 0.23 | 0.23 | 56 | 1016.7 |
| 20260510030138 | 7 | 225 | 0.0 | 0.0 | 0.00 | 0.23 | 0.23 | 55 | 1016.8 |
| 20260510025635 | 8 | 224 | 0.0 | 0.0 | 0.00 | 0.23 | 0.23 | 53 | 1016.6 |
| 20260510025132 | 8 | 224 | 0.0 | 0.0 | 0.00 | 0.23 | 0.23 | 53 | 1016.6 |
| 20260510024629 | 8 | 342 | 0.0 | 0.0 | 0.00 | 0.23 | 0.23 | 50 | 1016.5 |
| 20260510024126 | 9 | 234 | 0.0 | 1.6 | 0.00 | 0.23 | 0.23 | 49 | 1016.5 |
| 20260510023621 | 9 | 268 | 1.6 | 1.6 | 0.00 | 0.23 | 0.23 | 47 | 1016.5 |
| 20260510023119 | 9 | 247 | 0.0 | 1.6 | 0.00 | 0.23 | 0.23 | 48 | 1016.4 |
| 20260510022613 | 9 | 299 | 1.6 | 1.6 | 0.00 | 0.23 | 0.23 | 48 | 1016.4 |
| 20260510022108 | 9 | 273 | 0.0 | 1.6 | 0.00 | 0.23 | 0.23 | 47 | 1016.4 |
| 20260510021604 | 10 | 299 | 0.0 | 1.6 | 0.00 | 0.23 | 0.23 | 47 | 1016.2 |
| 20260510021102 | 10 | 22 | 0.0 | 1.6 | 0.00 | 0.23 | 0.23 | 47 | 1016.2 |
| 20260510020556 | 10 | 340 | 1.6 | 4.8 | 0.00 | 0.23 | 0.23 | 46 | 1016.1 |
| 20260510020052 | 10 | 337 | 0.0 | 4.8 | 0.00 | 0.23 | 0.23 | 45 | 1016.1 |
| 20260510015548 | 10 | 309 | 4.8 | 6.4 | 0.00 | 0.23 | 0.23 | 44 | 1016.1 |
| 20260510015044 | 10 | 299 | 1.6 | 4.8 | 0.00 | 0.23 | 0.23 | 44 | 1015.7 |
| 20260510014540 | 10 | 308 | 4.8 | 9.7 | 0.00 | 0.23 | 0.23 | 43 | 1015.8 |
| 20260510014037 | 10 | 317 | 3.2 | 6.4 | 0.00 | 0.23 | 0.23 | 43 | 1015.8 |
| 20260510013531 | 10 | 352 | 6.4 | 9.7 | 0.00 | 0.23 | 0.23 | 43 | 1015.7 |
| 20260510013028 | 10 | 344 | 3.2 | 12.9 | 0.00 | 0.23 | 0.23 | 42 | 1015.7 |
| 20260510012522 | 10 | 5 | 4.8 | 11.3 | 0.00 | 0.23 | 0.23 | 42 | 1015.4 |
| 20260510012019 | 10 | 358 | 6.4 | 12.9 | 0.00 | 0.23 | 0.23 | 42 | 1015.4 |
| 20260510011518 | 10 | 283 | 4.8 | 14.5 | 0.00 | 0.23 | 0.23 | 41 | 1015.4 |
| 20260510011013 | 11 | 291 | 6.4 | 12.9 | 0.00 | 0.23 | 0.23 | 41 | 1015.3 |
| 20260510010511 | 11 | 338 | 6.4 | 9.7 | 0.00 | 0.23 | 0.23 | 41 | 1015.3 |
| 20260510010008 | 11 | 357 | 6.4 | 14.5 | 0.00 | 0.23 | 0.23 | 40 | 1015.4 |
| 20260510005503 | 11 | 358 | 8.0 | 12.9 | 0.00 | 0.23 | 0.23 | 40 | 1015.2 |
| 20260510005001 | 11 | 302 | 6.4 | 16.1 | 0.00 | 0.23 | 0.23 | 40 | 1015.0 |
| 20260510004458 | 11 | 243 | 4.8 | 16.1 | 0.00 | 0.23 | 0.23 | 39 | 1015.2 |
| 20260510003957 | 11 | 338 | 9.7 | 16.1 | 0.00 | 0.23 | 0.23 | 39 | 1015.1 |
| 20260510003453 | 11 | 116 | 3.2 | 6.4 | 0.00 | 0.23 | 0.23 | 41 | 1014.9 |
| 20260510002948 | 11 | 359 | 8.0 | 11.3 | 0.00 | 0.23 | 0.23 | 39 | 1015.0 |
| 20260510002444 | 11 | 21 | 6.4 | 11.3 | 0.00 | 0.23 | 0.23 | 39 | 1014.9 |
| 20260510001942 | 12 | 9 | 6.4 | 17.7 | 0.00 | 0.23 | 0.23 | 38 | 1015.1 |
| 20260510001439 | 12 | 329 | 11.3 | 17.7 | 0.00 | 0.23 | 0.23 | 38 | 1015.0 |
| 20260510000937 | 12 | 19 | 12.9 | 17.7 | 0.00 | 0.23 | 0.23 | 37 | 1014.7 |
| 20260510000433 | 12 | 9 | 8.0 | 14.5 | 0.00 | 0.23 | 0.23 | 37 | 1014.7 |
| 20260509235929 | 12 | 332 | 6.4 | 12.9 | 0.00 | 0.23 | 0.23 | 40 | 1014.6 |
| 20260509235426 | 12 | 314 | 14.5 | 24.1 | 0.00 | 0.23 | 0.23 | 35 | 1014.7 |
| 20260509234921 | 12 | 314 | 14.5 | 24.1 | 0.00 | 0.23 | 0.23 | 35 | 1014.7 |
| 20260509234419 | 12 | 314 | 14.5 | 24.1 | 0.00 | 0.23 | 0.23 | 35 | 1014.6 |
| 20260509233917 | 12 | 349 | 8.0 | 11.3 | 0.00 | 0.23 | 0.23 | 38 | 1014.4 |
| 20260509233415 | 11 | 345 | 9.7 | 14.5 | 0.00 | 0.23 | 0.23 | 39 | 1014.2 |
| 20260509232911 | 12 | 340 | 3.2 | 6.4 | 0.00 | 0.23 | 0.23 | 39 | 1014.5 |
| 20260509232408 | 11 | 332 | 8.0 | 12.9 | 0.00 | 0.23 | 0.23 | 38 | 1014.5 |
| 20260509231904 | 12 | 27 | 8.0 | 11.3 | 0.00 | 0.23 | 0.23 | 38 | 1014.1 |
| 20260509231400 | 12 | 16 | 9.7 | 12.9 | 0.00 | 0.23 | 0.23 | 39 | 1014.0 |
| 20260509230858 | 12 | 16 | 9.7 | 12.9 | 0.00 | 0.23 | 0.23 | 39 | 1014.2 |
| 20260509230355 | 12 | 16 | 9.7 | 12.9 | 0.00 | 0.23 | 0.23 | 39 | 1014.3 |
| 20260509225851 | 12 | 16 | 9.7 | 12.9 | 0.00 | 0.23 | 0.23 | 39 | 1014.3 |
| 20260509225348 | 12 | 307 | 9.7 | 12.9 | 0.00 | 0.23 | 0.23 | 38 | 1014.1 |
| 20260509224843 | 12 | 307 | 9.7 | 12.9 | 0.00 | 0.23 | 0.23 | 38 | 1014.1 |
| 20260509224339 | 12 | 343 | 4.8 | 6.4 | 0.00 | 0.23 | 0.23 | 42 | 1014.0 |
| 20260509223836 | 12 | 343 | 4.8 | 6.4 | 0.00 | 0.23 | 0.23 | 42 | 1014.0 |
| 20260509223333 | 12 | 343 | 4.8 | 6.4 | 0.00 | 0.23 | 0.23 | 42 | 1014.0 |
| 20260509222830 | 12 | 323 | 9.7 | 16.1 | 0.00 | 0.23 | 0.23 | 40 | 1014.1 |
| 20260509222325 | 12 | 57 | 9.7 | 14.5 | 0.00 | 0.23 | 0.23 | 41 | 1013.9 |
| 20260509221821 | 12 | 2 | 8.0 | 12.9 | 0.00 | 0.23 | 0.23 | 40 | 1013.8 |
| 20260509221319 | 13 | 304 | 4.8 | 12.9 | 0.00 | 0.23 | 0.23 | 41 | 1013.7 |
| 20260509220814 | 13 | 258 | 4.8 | 20.9 | 0.00 | 0.23 | 0.23 | 41 | 1013.8 |
| 20260509220310 | 13 | 346 | 6.4 | 14.5 | 0.00 | 0.23 | 0.23 | 40 | 1013.7 |
| 20260509215806 | 13 | 31 | 6.4 | 16.1 | 0.00 | 0.23 | 0.23 | 40 | 1014.1 |
| 20260509215306 | 13 | 356 | 11.3 | 17.7 | 0.00 | 0.23 | 0.23 | 38 | 1013.8 |
| 20260509214800 | 12 | 301 | 17.7 | 24.1 | 0.00 | 0.23 | 0.23 | 39 | 1013.6 |
| 20260509214257 | 13 | 342 | 11.3 | 16.1 | 0.00 | 0.23 | 0.23 | 40 | 1013.8 |
| 20260509213754 | 13 | 268 | 8.0 | 16.1 | 0.00 | 0.23 | 0.23 | 42 | 1013.9 |
| 20260509213249 | 13 | 282 | 12.9 | 17.7 | 0.00 | 0.23 | 0.23 | 39 | 1013.7 |
| 20260509212747 | 12 | 311 | 12.9 | 17.7 | 0.00 | 0.23 | 0.23 | 39 | 1013.7 |
| 20260509212244 | 12 | 324 | 22.5 | 30.6 | 0.00 | 0.23 | 0.23 | 37 | 1013.7 |
| 20260509211745 | 12 | 351 | 8.0 | 24.1 | 0.00 | 0.23 | 0.23 | 40 | 1013.9 |
| 20260509211241 | 13 | 274 | 14.5 | 25.7 | 0.00 | 0.23 | 0.23 | 39 | 1013.6 |
| 20260509210738 | 12 | 269 | 9.7 | 17.7 | 0.00 | 0.23 | 0.23 | 40 | 1013.7 |
| 20260509210236 | 12 | 343 | 14.5 | 25.7 | 0.00 | 0.23 | 0.23 | 39 | 1013.8 |
| 20260509205735 | 12 | 289 | 8.0 | 20.9 | 0.00 | 0.23 | 0.23 | 41 | 1013.7 |
| 20260509205230 | 13 | 250 | 11.3 | 22.5 | 0.00 | 0.23 | 0.23 | 40 | 1013.8 |
| 20260509204726 | 13 | 262 | 12.9 | 20.9 | 0.00 | 0.23 | 0.23 | 39 | 1013.8 |
| 20260509204223 | 12 | 351 | 9.7 | 22.5 | 0.00 | 0.23 | 0.23 | 41 | 1013.7 |
| 20260509203719 | 13 | 279 | 14.5 | 27.4 | 0.00 | 0.23 | 0.23 | 39 | 1013.9 |
| 20260509203218 | 13 | 301 | 9.7 | 20.9 | 0.00 | 0.23 | 0.23 | 45 | 1013.6 |
| 20260509202713 | 12 | 57 | 6.4 | 14.5 | 0.00 | 0.23 | 0.23 | 42 | 1013.6 |
| 20260509202208 | 12 | 315 | 14.5 | 20.9 | 0.00 | 0.23 | 0.23 | 42 | 1013.6 |
| 20260509201703 | 12 | 318 | 11.3 | 24.1 | 0.00 | 0.23 | 0.23 | 42 | 1013.8 |
| 20260509201201 | 12 | 308 | 9.7 | 17.7 | 0.00 | 0.23 | 0.23 | 42 | 1013.7 |
| 20260509200657 | 12 | 315 | 12.9 | 25.7 | 0.00 | 0.23 | 0.23 | 41 | 1013.7 |
| 20260509200152 | 11 | 32 | 9.7 | 27.4 | 0.00 | 0.23 | 0.23 | 45 | 1013.8 |
| 20260509195647 | 11 | 346 | 11.3 | 22.5 | 0.00 | 0.23 | 0.23 | 44 | 1013.6 |
| 20260509195143 | 11 | 43 | 9.7 | 17.7 | 0.00 | 0.23 | 0.23 | 46 | 1013.6 |
| 20260509194637 | 11 | 14 | 8.0 | 20.9 | 0.00 | 0.23 | 0.23 | 43 | 1013.6 |
| 20260509194135 | 11 | 271 | 9.7 | 16.1 | 0.00 | 0.23 | 0.23 | 45 | 1013.5 |
| 20260509193630 | 12 | 322 | 9.7 | 16.1 | 0.00 | 0.23 | 0.23 | 45 | 1013.6 |
| 20260509193126 | 12 | 342 | 11.3 | 17.7 | 0.00 | 0.23 | 0.23 | 45 | 1013.5 |
| 20260509192623 | 11 | 23 | 8.0 | 25.7 | 0.00 | 0.23 | 0.23 | 51 | 1013.3 |